^^
Saratoga-Weather Station Historical Data
Daily Summary for March 6, 2021 Units:  Metric    English   Both
Daily Weekly Monthly Yearly Custom
  High: Low: Average:
Temperature: 8.9 °C 4.4 °C 6.7 °C
Dew Point: 7.1 °C 3.1 °C 5.3 °C
Humidity: 95% 86% 91%
Wind Speed: 6.4km/h 0km/h 1.7km/h
Wind Gust: 12.9km/h - -
Wind- - South
Pressure: 1011.2 hPa 1001.4 hPa -
Precipitation: 7.6 mm    
Historical Graphs
 
 
Tabular Data for March 6, 2021
Time Temperature Dew Point Pressure Wind Wind Speed Wind Gust Humidity Rainfall Rate (Hourly) solar
01:08 5.6 °C 3.8 °C 1011.2 hPa Calm   1.6 km/h 88% 0.0 mm 0 W/m2
01:13 5.4 °C 3.6 °C 1011.2 hPa Calm     88% 0.0 mm 0 W/m2
01:18 5.3 °C 3.5 °C 1011.2 hPa Calm   1.6 km/h 88% 0.0 mm 0 W/m2
01:23 5.2 °C 3.5 °C 1011.2 hPa Calm     89% 0.0 mm 0 W/m2
01:28 5 °C 3.3 °C 1011.2 hPa Calm   1.6 km/h 89% 0.0 mm 0 W/m2
01:34 4.9 °C 3.2 °C 1011.2 hPa Calm   1.6 km/h 89% 0.0 mm 0 W/m2
01:39 4.8 °C 3.3 °C 1011.2 hPa Calm   1.6 km/h 90% 0.0 mm 0 W/m2
01:44 4.7 °C 3.2 °C 1011.2 hPa North 1.4 km/h 1.6 km/h 90% 0.0 mm 0 W/m2
01:49 4.6 °C 3.1 °C 1010.8 hPa Calm     90% 0.0 mm 0 W/m2
01:54 4.6 °C 3.3 °C 1010.8 hPa Calm     91% 0.0 mm 0 W/m2
01:59 4.4 °C 3.1 °C 1010.8 hPa SE 4.7 km/h 4.8 km/h 91% 0.0 mm 0 W/m2
02:04 4.4 °C 3.1 °C 1010.8 hPa Calm   1.6 km/h 91% 0.0 mm 0 W/m2
02:09 4.4 °C 3.2 °C 1010.8 hPa SW 3.2 km/h 3.2 km/h 92% 0.0 mm 0 W/m2
02:14 4.4 °C 3.2 °C 1010.8 hPa NW 1.4 km/h 3.2 km/h 92% 0.0 mm 0 W/m2
02:19 4.6 °C 3.4 °C 1010.8 hPa Calm   4.8 km/h 92% 0.0 mm 0 W/m2
02:24 4.7 °C 3.5 °C 1010.8 hPa Calm     92% 0.0 mm 0 W/m2
02:29 4.7 °C 3.5 °C 1010.8 hPa SW 1.4 km/h 4.8 km/h 92% 0.0 mm 0 W/m2
02:34 4.8 °C 3.6 °C 1010.8 hPa SW 1.4 km/h 3.2 km/h 92% 0.0 mm 0 W/m2
02:39 4.9 °C 3.6 °C 1010.8 hPa Calm   4.8 km/h 91% 0.0 mm 0 W/m2
02:44 5 °C 3.5 °C 1010.8 hPa SW 1.4 km/h 3.2 km/h 90% 0.0 mm 0 W/m2
02:49 5.1 °C 3.6 °C 1010.8 hPa Calm   4.8 km/h 90% 0.0 mm 0 W/m2
02:54 5.2 °C 3.7 °C 1010.8 hPa WSW 1.4 km/h 1.6 km/h 90% 0.0 mm 0 W/m2
02:59 5.2 °C 3.7 °C 1010.8 hPa West 1.4 km/h 1.6 km/h 90% 0.0 mm 0 W/m2
03:04 5.2 °C 3.7 °C 1010.8 hPa Calm   4.8 km/h 90% 0.0 mm 0 W/m2
03:09 5.3 °C 3.6 °C 1010.8 hPa South 1.4 km/h 4.8 km/h 89% 0.0 mm 0 W/m2
03:14 5.3 °C 3.6 °C 1010.8 hPa Calm   3.2 km/h 89% 0.0 mm 0 W/m2
03:19 5.3 °C 3.6 °C 1010.8 hPa ENE 1.4 km/h 4.8 km/h 89% 0.0 mm 0 W/m2
03:24 5.3 °C 3.6 °C 1010.8 hPa Calm   1.6 km/h 89% 0.0 mm 0 W/m2
03:29 5.3 °C 3.6 °C 1010.8 hPa SW 1.4 km/h 6.4 km/h 89% 0.0 mm 0 W/m2
03:34 5.3 °C 3.6 °C 1010.8 hPa West 1.4 km/h 4.8 km/h 89% 0.0 mm 0 W/m2
03:39 5.3 °C 3.6 °C 1010.8 hPa Calm   6.4 km/h 89% 0.0 mm 0 W/m2
03:44 5.3 °C 3.6 °C 1010.8 hPa SE 1.4 km/h 6.4 km/h 89% 0.0 mm 0 W/m2
03:49 5.3 °C 3.6 °C 1010.5 hPa SSE 6.4 km/h 6.4 km/h 89% 0.0 mm 0 W/m2
03:54 5.3 °C 3.6 °C 1010.5 hPa ESE 1.4 km/h 4.8 km/h 89% 0.0 mm 0 W/m2
03:59 5.4 °C 3.7 °C 1010.5 hPa East 1.4 km/h 4.8 km/h 89% 0.0 mm 0 W/m2
04:04 5.4 °C 3.7 °C 1010.5 hPa Calm   3.2 km/h 89% 0.0 mm 0 W/m2
04:09 5.4 °C 3.7 °C 1010.5 hPa Calm     89% 0.0 mm 0 W/m2
04:14 5.4 °C 3.7 °C 1010.5 hPa Calm   4.8 km/h 89% 0.2 mm 0 W/m2
04:19 5.4 °C 3.7 °C 1010.5 hPa Calm   1.6 km/h 89% 0.2 mm 0 W/m2
04:24 5.4 °C 3.9 °C 1010.2 hPa ESE 1.4 km/h 1.6 km/h 90% 0.2 mm 0 W/m2
04:29 5.4 °C 3.9 °C 1010.2 hPa SE 3.2 km/h 3.2 km/h 90% 0.2 mm 0 W/m2
04:34 5.4 °C 3.9 °C 1010.2 hPa Calm   3.2 km/h 90% 0.2 mm 0 W/m2
04:39 5.4 °C 3.9 °C 1010.2 hPa ESE 1.4 km/h 3.2 km/h 90% 0.2 mm 0 W/m2
04:44 5.4 °C 3.9 °C 1010.2 hPa Calm     90% 0.2 mm 0 W/m2
04:49 5.4 °C 3.9 °C 1010.2 hPa ESE 3.2 km/h 3.2 km/h 90% 0.2 mm 0 W/m2
04:54 5.3 °C 3.8 °C 1010.2 hPa Calm     90% 0.2 mm 0 W/m2
04:59 5.3 °C 4 °C 1009.8 hPa NNW 1.4 km/h 1.6 km/h 91% 0.2 mm 0 W/m2
05:04 5.3 °C 4 °C 1009.8 hPa NNW 1.4 km/h 1.6 km/h 91% 0.5 mm 0 W/m2
05:09 5.3 °C 4 °C 1009.8 hPa NNW 1.4 km/h 1.6 km/h 91% 0.5 mm 0 W/m2
05:14 5.3 °C 4 °C 1009.8 hPa Calm   1.6 km/h 91% 0.5 mm 0 W/m2
05:19 5.3 °C 4 °C 1009.8 hPa Calm     91% 0.5 mm 0 W/m2
05:24 5.2 °C 3.9 °C 1009.8 hPa Calm     91% 0.5 mm 0 W/m2
05:29 5.2 °C 4 °C 1009.8 hPa Calm   3.2 km/h 92% 0.5 mm 0 W/m2
05:34 5.2 °C 4 °C 1009.8 hPa Calm     92% 0.8 mm 0 W/m2
05:39 5.2 °C 4 °C 1009.8 hPa Calm     92% 1.0 mm 0 W/m2
05:44 5.2 °C 4 °C 1009.8 hPa WNW 1.4 km/h 3.2 km/h 92% 1.0 mm 0 W/m2
05:49 5.2 °C 4 °C 1009.5 hPa WNW 1.4 km/h 1.6 km/h 92% 1.3 mm 0 W/m2
05:54 5.2 °C 4 °C 1009.8 hPa Calm   3.2 km/h 92% 1.5 mm 0 W/m2
05:59 5.2 °C 4 °C 1009.5 hPa Calm   1.6 km/h 92% 1.3 mm 0 W/m2
06:04 5.2 °C 4 °C 1009.5 hPa NE 1.4 km/h 3.2 km/h 92% 1.5 mm 0 W/m2
06:09 5.2 °C 4 °C 1009.5 hPa ESE 1.4 km/h 6.4 km/h 92% 1.5 mm 0 W/m2
06:14 5.2 °C 4 °C 1009.5 hPa Calm   3.2 km/h 92% 1.5 mm 0 W/m2
06:19 5.2 °C 4.2 °C 1009.5 hPa East 3.2 km/h 6.4 km/h 93% 1.5 mm 0 W/m2
06:24 5.2 °C 4.2 °C 1009.5 hPa WSW 1.4 km/h 3.2 km/h 93% 1.5 mm 0 W/m2
06:29 5.2 °C 4.2 °C 1009.5 hPa Calm   1.6 km/h 93% 1.5 mm 5 W/m2
06:34 5.2 °C 4.2 °C 1009.5 hPa Calm   3.2 km/h 93% 1.3 mm 7 W/m2
06:39 5.2 °C 4.2 °C 1009.1 hPa SE 3.2 km/h 3.2 km/h 93% 1.0 mm 7 W/m2
06:44 5.1 °C 4.1 °C 1009.1 hPa Calm   3.2 km/h 93% 1.0 mm 9 W/m2
06:49 5.1 °C 4.1 °C 1009.1 hPa WSW 4.8 km/h 4.8 km/h 93% 0.8 mm 14 W/m2
06:54 5.1 °C 4.1 °C 1009.1 hPa East 3.2 km/h 4.8 km/h 93% 0.5 mm 21 W/m2
06:59 5.1 °C 4.1 °C 1009.1 hPa Calm   6.4 km/h 93% 0.5 mm 14 W/m2
07:04 5.1 °C 4.1 °C 1009.1 hPa East 6.4 km/h 6.4 km/h 93% 0.5 mm 23 W/m2
07:09 5.1 °C 4.1 °C 1009.1 hPa NW 3.2 km/h 6.4 km/h 93% 0.2 mm 23 W/m2
07:14 5.1 °C 4.1 °C 1009.1 hPa East 1.4 km/h 4.8 km/h 93% 0.2 mm 16 W/m2
07:19 5.1 °C 3.9 °C 1009.1 hPa NW 1.4 km/h 6.4 km/h 92% 0.0 mm 23 W/m2
07:24 5.2 °C 4 °C 1009.1 hPa Calm   1.6 km/h 92% 0.0 mm 33 W/m2
07:29 5.2 °C 4 °C 1009.1 hPa ESE 6.4 km/h 6.4 km/h 92% 0.0 mm 33 W/m2
07:34 5.2 °C 4 °C 1009.1 hPa WSW 3.2 km/h 4.8 km/h 92% 0.0 mm 35 W/m2
07:39 5.3 °C 4.1 °C 1008.8 hPa NW 3.2 km/h 3.2 km/h 92% 0.0 mm 35 W/m2
07:44 5.3 °C 4.1 °C 1009.1 hPa North 1.4 km/h 3.2 km/h 92% 0.0 mm 40 W/m2
07:50 5.3 °C 4.1 °C 1009.1 hPa North 1.4 km/h 3.2 km/h 92% 0.0 mm 46 W/m2
07:55 5.3 °C 4.1 °C 1008.8 hPa WNW 1.4 km/h 8 km/h 92% 0.0 mm 54 W/m2
08:00 5.4 °C 4.2 °C 1008.8 hPa Calm   1.6 km/h 92% 0.0 mm 65 W/m2
08:05 5.4 °C 4.2 °C 1008.8 hPa NW 1.4 km/h 8 km/h 92% 0.0 mm 63 W/m2
08:10 5.5 °C 4.3 °C 1008.8 hPa NNW 1.4 km/h 6.4 km/h 92% 0.0 mm 69 W/m2
08:15 5.6 °C 4.4 °C 1009.1 hPa East 1.4 km/h 1.6 km/h 92% 0.0 mm 74 W/m2
08:20 5.7 °C 4.5 °C 1009.1 hPa NNE 3.2 km/h 6.4 km/h 92% 0.0 mm 83 W/m2
08:25 5.7 °C 4.5 °C 1009.1 hPa NNW 1.4 km/h 3.2 km/h 92% 0.0 mm 104 W/m2
08:30 5.7 °C 4.5 °C 1008.8 hPa ESE 1.4 km/h 1.6 km/h 92% 0.0 mm 84 W/m2
08:35 5.8 °C 4.6 °C 1008.8 hPa Calm   3.2 km/h 92% 0.0 mm 74 W/m2
08:40 5.9 °C 4.7 °C 1008.8 hPa East 1.4 km/h 4.8 km/h 92% 0.0 mm 86 W/m2
08:45 5.9 °C 4.7 °C 1008.8 hPa ESE 1.4 km/h 6.4 km/h 92% 0.0 mm 111 W/m2
08:50 6 °C 4.8 °C 1008.8 hPa North 4.7 km/h 4.8 km/h 92% 0.0 mm 118 W/m2
08:55 6.1 °C 4.9 °C 1008.8 hPa Calm   6.4 km/h 92% 0.0 mm 128 W/m2
09:00 6.2 °C 5 °C 1008.8 hPa North 1.4 km/h 4.8 km/h 92% 0.2 mm 181 W/m2
09:05 6.3 °C 5.1 °C 1008.8 hPa North 1.4 km/h 1.6 km/h 92% 0.2 mm 169 W/m2
09:10 6.4 °C 5.2 °C 1008.8 hPa NNW 3.2 km/h 3.2 km/h 92% 0.2 mm 151 W/m2
09:15 6.5 °C 5.3 °C 1008.8 hPa Calm   1.6 km/h 92% 0.2 mm 148 W/m2
09:20 6.6 °C 5.2 °C 1008.5 hPa SSE 1.4 km/h 4.8 km/h 91% 0.2 mm 158 W/m2
09:25 6.7 °C 5.3 °C 1008.5 hPa East 3.2 km/h 6.4 km/h 91% 0.2 mm 197 W/m2
09:30 6.8 °C 5.4 °C 1008.5 hPa SW 1.4 km/h 4.8 km/h 91% 0.2 mm 229 W/m2
09:35 6.9 °C 5.5 °C 1008.5 hPa Calm   4.8 km/h 91% 0.2 mm 288 W/m2
09:40 7.1 °C 5.7 °C 1008.5 hPa East 1.4 km/h 4.8 km/h 91% 0.2 mm 192 W/m2
09:45 7.3 °C 5.8 °C 1008.5 hPa NNE 1.4 km/h 3.2 km/h 90% 0.2 mm 258 W/m2
09:50 7.4 °C 5.9 °C 1008.5 hPa WNW 3.2 km/h 3.2 km/h 90% 0.2 mm 304 W/m2
09:55 7.4 °C 5.7 °C 1008.5 hPa ENE 3.2 km/h 4.8 km/h 89% 0.2 mm 199 W/m2
10:00 7.4 °C 5.5 °C 1008.5 hPa NW 3.2 km/h 6.4 km/h 88% 0.0 mm 107 W/m2
10:05 7.4 °C 5.5 °C 1008.5 hPa East 4.7 km/h 6.4 km/h 88% 0.0 mm 104 W/m2
10:10 7.4 °C 5.5 °C 1008.5 hPa ENE 3.2 km/h 3.2 km/h 88% 0.0 mm 111 W/m2
10:15 7.4 °C 5.5 °C 1008.5 hPa NNE 1.4 km/h 1.6 km/h 88% 0.0 mm 72 W/m2
10:20 7.3 °C 5.4 °C 1008.5 hPa West 3.2 km/h 4.8 km/h 88% 0.0 mm 77 W/m2
10:25 7.2 °C 5.3 °C 1008.5 hPa Calm   3.2 km/h 88% 0.0 mm 91 W/m2
10:30 7.2 °C 5.3 °C 1008.5 hPa NNW 1.4 km/h 1.6 km/h 88% 0.0 mm 67 W/m2
10:35 7.3 °C 5.6 °C 1008.5 hPa Calm     89% 0.0 mm 51 W/m2
10:40 7.2 °C 5.3 °C 1008.5 hPa NW 1.4 km/h 3.2 km/h 88% 0.0 mm 63 W/m2
10:45 7.2 °C 5.3 °C 1008.5 hPa Calm     88% 0.0 mm 53 W/m2
10:50 7.2 °C 5.5 °C 1008.5 hPa West 3.2 km/h 4.8 km/h 89% 0.0 mm 113 W/m2
10:55 7.2 °C 5.5 °C 1008.5 hPa Calm   4.8 km/h 89% 0.0 mm 139 W/m2
11:00 7.2 °C 5.5 °C 1008.5 hPa North 1.4 km/h 3.2 km/h 89% 0.0 mm 190 W/m2
11:05 7.2 °C 5.5 °C 1008.1 hPa North 3.2 km/h 6.4 km/h 89% 0.0 mm 227 W/m2
11:10 7.4 °C 5.7 °C 1008.1 hPa Calm   1.6 km/h 89% 0.0 mm 396 W/m2
11:15 7.7 °C 6.2 °C 1008.1 hPa NNE 1.4 km/h 6.4 km/h 90% 0.0 mm 452 W/m2
11:20 8.1 °C 6.4 °C 1007.8 hPa ENE 1.4 km/h 6.4 km/h 89% 0.0 mm 438 W/m2
11:25 8.3 °C 6.4 °C 1007.8 hPa South 1.4 km/h 3.2 km/h 88% 0.0 mm 311 W/m2
11:30 8.5 °C 6.3 °C 1007.8 hPa East 1.4 km/h 6.4 km/h 86% 0.0 mm 230 W/m2
11:35 8.6 °C 6.4 °C 1007.5 hPa Calm   4.8 km/h 86% 0.0 mm 371 W/m2
11:40 8.7 °C 6.7 °C 1007.5 hPa ENE 3.2 km/h 6.4 km/h 87% 0.0 mm 378 W/m2
11:45 8.8 °C 6.6 °C 1007.5 hPa East 1.4 km/h 4.8 km/h 86% 0.0 mm 229 W/m2
11:50 8.9 °C 6.7 °C 1007.5 hPa East 3.2 km/h 4.8 km/h 86% 0.0 mm 239 W/m2
11:55 8.8 °C 6.6 °C 1007.5 hPa East 3.2 km/h 3.2 km/h 86% 0.0 mm 125 W/m2
12:01 8.8 °C 6.6 °C 1007.1 hPa ENE 3.2 km/h 3.2 km/h 86% 0.0 mm 74 W/m2
12:06 8.7 °C 6.5 °C 1007.1 hPa East 1.4 km/h 4.8 km/h 86% 0.0 mm 46 W/m2
12:11 8.6 °C 6.6 °C 1007.1 hPa ESE 6.4 km/h 6.4 km/h 87% 0.0 mm 42 W/m2
12:16 8.5 °C 6.6 °C 1007.1 hPa SE 1.4 km/h 3.2 km/h 88% 0.2 mm 58 W/m2
12:21 8.3 °C 6.6 °C 1007.1 hPa Calm   4.8 km/h 89% 0.5 mm 62 W/m2
12:26 8.1 °C 6.4 °C 1007.1 hPa Calm   3.2 km/h 89% 0.5 mm 77 W/m2
12:31 8 °C 6.5 °C 1006.8 hPa South 1.4 km/h 6.4 km/h 90% 0.5 mm 156 W/m2
12:36 7.9 °C 6.4 °C 1006.8 hPa Calm   1.6 km/h 90% 0.5 mm 90 W/m2
12:41 8 °C 6.6 °C 1006.8 hPa SE 1.4 km/h 4.8 km/h 91% 0.8 mm 79 W/m2
12:46 7.9 °C 6.5 °C 1006.4 hPa Calm   1.6 km/h 91% 0.8 mm 142 W/m2
12:51 8 °C 6.6 °C 1006.4 hPa Calm   1.6 km/h 91% 1.0 mm 111 W/m2
12:56 8.1 °C 6.7 °C 1006.4 hPa West 3.2 km/h 4.8 km/h 91% 1.0 mm 162 W/m2
13:01 8.1 °C 6.7 °C 1006.4 hPa NNW 1.4 km/h 4.8 km/h 91% 1.0 mm 172 W/m2
13:06 8.2 °C 6.8 °C 1006.1 hPa Calm   3.2 km/h 91% 1.0 mm 200 W/m2
13:11 8.3 °C 6.8 °C 1006.1 hPa NW 3.2 km/h 4.8 km/h 90% 1.0 mm 213 W/m2
13:16 8.4 °C 6.9 °C 1005.8 hPa ESE 3.2 km/h 3.2 km/h 90% 0.8 mm 243 W/m2
13:21 8.6 °C 7.1 °C 1005.8 hPa East 1.4 km/h 4.8 km/h 90% 0.5 mm 165 W/m2
13:26 8.7 °C 7 °C 1005.8 hPa Calm   3.2 km/h 89% 0.5 mm 130 W/m2
13:31 8.7 °C 7 °C 1005.8 hPa ENE 4.7 km/h 4.8 km/h 89% 0.5 mm 120 W/m2
13:36 8.7 °C 6.8 °C 1005.4 hPa East 1.4 km/h 1.6 km/h 88% 0.5 mm 91 W/m2
13:41 8.6 °C 6.7 °C 1005.4 hPa ENE 1.4 km/h 3.2 km/h 88% 0.2 mm 69 W/m2
13:46 8.5 °C 6.6 °C 1005.4 hPa Calm   1.6 km/h 88% 0.2 mm 69 W/m2
13:51 8.4 °C 6.7 °C 1005.4 hPa East 3.2 km/h 3.2 km/h 89% 0.2 mm 162 W/m2
14:11 8.3 °C 6.6 °C 1005.1 hPa East 1.4 km/h 3.2 km/h 89% 0.2 mm 98 W/m2
14:16 8.3 °C 6.8 °C 1004.7 hPa ENE 4.7 km/h 4.8 km/h 90% 0.2 mm 105 W/m2
14:21 8.3 °C 6.8 °C 1004.7 hPa Calm   3.2 km/h 90% 0.2 mm 102 W/m2
14:26 8.3 °C 6.8 °C 1004.7 hPa East 1.4 km/h 6.4 km/h 90% 0.5 mm 116 W/m2
14:31 8.3 °C 6.8 °C 1004.7 hPa East 1.4 km/h 3.2 km/h 90% 0.5 mm 72 W/m2
14:36 8.2 °C 6.7 °C 1004.4 hPa East 3.2 km/h 6.4 km/h 90% 0.5 mm 109 W/m2
14:46 8.1 °C 6.6 °C 1004.4 hPa ENE 6.4 km/h 11.3 km/h 90% 0.5 mm 97 W/m2
14:51 7.9 °C 6.4 °C 1004.4 hPa SSW 4.7 km/h 9.7 km/h 90% 0.5 mm 130 W/m2
14:56 7.9 °C 6.4 °C 1004.1 hPa East 4.7 km/h 11.3 km/h 90% 0.5 mm 105 W/m2
15:02 7.8 °C 6.3 °C 1004.1 hPa ESE 1.4 km/h 6.4 km/h 90% 0.5 mm 100 W/m2
15:07 7.8 °C 6.4 °C 1004.1 hPa ESE 1.4 km/h 9.7 km/h 91% 0.5 mm 167 W/m2
15:12 7.9 °C 6.5 °C 1004.1 hPa ENE 1.4 km/h 3.2 km/h 91% 0.5 mm 174 W/m2
15:17 8.1 °C 6.9 °C 1003.7 hPa ESE 3.2 km/h 4.8 km/h 92% 0.5 mm 158 W/m2
15:22 8.1 °C 6.7 °C 1003.7 hPa East 3.2 km/h 6.4 km/h 91% 0.5 mm 162 W/m2
15:27 8.1 °C 6.7 °C 1003.7 hPa Calm   6.4 km/h 91% 0.5 mm 81 W/m2
15:32 8.1 °C 6.7 °C 1003.7 hPa Calm   4.8 km/h 91% 0.5 mm 102 W/m2
15:37 8.1 °C 6.7 °C 1003.4 hPa Calm   3.2 km/h 91% 0.2 mm 104 W/m2
15:42 8.1 °C 6.7 °C 1003.4 hPa ESE 3.2 km/h 3.2 km/h 91% 0.5 mm 90 W/m2
15:47 8.1 °C 6.7 °C 1003.4 hPa Calm     91% 0.5 mm 54 W/m2
15:52 8.1 °C 6.7 °C 1003.0 hPa East 3.2 km/h 3.2 km/h 91% 0.5 mm 123 W/m2
15:57 8.1 °C 6.7 °C 1003.0 hPa East 4.7 km/h 4.8 km/h 91% 0.5 mm 130 W/m2
16:02 8.1 °C 6.7 °C 1003.0 hPa ESE 1.4 km/h 3.2 km/h 91% 0.8 mm 107 W/m2
16:07 8 °C 6.8 °C 1003.0 hPa SE 3.2 km/h 4.8 km/h 92% 1.0 mm 63 W/m2
16:12 7.9 °C 6.7 °C 1002.7 hPa Calm   1.6 km/h 92% 1.3 mm 86 W/m2
16:17 7.9 °C 6.7 °C 1002.7 hPa ESE 1.4 km/h 3.2 km/h 92% 1.0 mm 67 W/m2
16:22 7.9 °C 6.8 °C 1002.7 hPa East 4.7 km/h 4.8 km/h 93% 1.0 mm 39 W/m2
16:27 7.8 °C 6.7 °C 1002.7 hPa Calm   3.2 km/h 93% 1.3 mm 49 W/m2
16:32 7.7 °C 6.6 °C 1002.4 hPa East 1.4 km/h 4.8 km/h 93% 1.3 mm 137 W/m2
16:37 7.7 °C 6.6 °C 1002.0 hPa SE 3.2 km/h 6.4 km/h 93% 1.5 mm 69 W/m2
16:42 7.7 °C 6.6 °C 1002.0 hPa Calm   1.6 km/h 93% 1.3 mm 46 W/m2
16:47 7.7 °C 6.6 °C 1001.7 hPa ENE 1.4 km/h 4.8 km/h 93% 1.0 mm 79 W/m2
16:52 7.6 °C 6.7 °C 1001.7 hPa East 3.2 km/h 3.2 km/h 94% 1.0 mm 56 W/m2
16:57 7.6 °C 6.7 °C 1001.7 hPa ENE 3.2 km/h 6.4 km/h 94% 1.0 mm 42 W/m2
17:02 7.6 °C 6.7 °C 1001.7 hPa East 1.4 km/h 1.6 km/h 94% 0.8 mm 37 W/m2
17:07 7.6 °C 6.7 °C 1001.7 hPa East 1.4 km/h 6.4 km/h 94% 0.5 mm 39 W/m2
17:12 7.6 °C 6.7 °C 1001.7 hPa Calm   1.6 km/h 94% 0.5 mm 42 W/m2
17:17 7.7 °C 6.8 °C 1001.7 hPa ENE 1.4 km/h 3.2 km/h 94% 0.5 mm 49 W/m2
17:22 7.6 °C 6.7 °C 1001.7 hPa NE 1.4 km/h 6.4 km/h 94% 0.8 mm 42 W/m2
17:27 7.6 °C 6.7 °C 1001.7 hPa NNW 3.2 km/h 3.2 km/h 94% 0.5 mm 40 W/m2
17:32 7.6 °C 6.7 °C 1001.7 hPa Calm   6.4 km/h 94% 0.8 mm 49 W/m2
17:37 7.6 °C 6.7 °C 1001.7 hPa NNE 1.4 km/h 3.2 km/h 94% 0.5 mm 37 W/m2
17:42 7.6 °C 6.7 °C 1001.7 hPa ESE 3.2 km/h 4.8 km/h 94% 0.8 mm 65 W/m2
17:47 7.6 °C 6.7 °C 1001.4 hPa NE 1.4 km/h 3.2 km/h 94% 1.0 mm 47 W/m2
17:52 7.7 °C 6.8 °C 1001.7 hPa Calm   3.2 km/h 94% 1.0 mm 30 W/m2
17:57 7.7 °C 6.8 °C 1001.7 hPa NNW 1.4 km/h 3.2 km/h 94% 1.0 mm 30 W/m2
18:02 7.7 °C 6.8 °C 1001.4 hPa East 6.4 km/h 6.4 km/h 94% 1.3 mm 26 W/m2
18:07 7.6 °C 6.7 °C 1001.7 hPa West 4.7 km/h 6.4 km/h 94% 1.3 mm 21 W/m2
18:12 7.6 °C 6.9 °C 1001.7 hPa WNW 4.7 km/h 6.4 km/h 95% 1.5 mm 32 W/m2
18:17 7.6 °C 6.9 °C 1001.7 hPa Calm   1.6 km/h 95% 1.3 mm 49 W/m2
18:22 7.6 °C 6.9 °C 1001.7 hPa West 6.4 km/h 11.3 km/h 95% 1.3 mm 33 W/m2
18:27 7.6 °C 6.9 °C 1001.7 hPa WNW 3.2 km/h 6.4 km/h 95% 1.3 mm 32 W/m2
18:32 7.6 °C 6.9 °C 1002.0 hPa WNW 6.4 km/h 12.9 km/h 95% 1.3 mm 28 W/m2
18:37 7.6 °C 6.9 °C 1002.0 hPa WNW 4.7 km/h 11.3 km/h 95% 1.3 mm 42 W/m2
18:42 7.6 °C 6.9 °C 1002.0 hPa WNW 4.7 km/h 6.4 km/h 95% 1.3 mm 33 W/m2
18:47 7.6 °C 6.9 °C 1002.4 hPa NW 1.4 km/h 11.3 km/h 95% 1.0 mm 47 W/m2
18:52 7.6 °C 6.9 °C 1002.0 hPa NNW 1.4 km/h 6.4 km/h 95% 1.0 mm 70 W/m2
18:57 7.7 °C 6.9 °C 1002.0 hPa NW 3.2 km/h 6.4 km/h 95% 1.0 mm 98 W/m2
19:07 7.7 °C 6.9 °C 1002.4 hPa ESE 3.2 km/h 4.8 km/h 95% 0.8 mm 88 W/m2
19:12 7.8 °C 7 °C 1002.7 hPa North 3.2 km/h 4.8 km/h 95% 0.5 mm 51 W/m2
Juneau County Weather
Compliments of Weather Underground - 2 mb